Terminal Aerodrome Forecast
Issued by NWS

Home | Current Version | Previous Version | Text Only | Print | Product List | Glossary On
Versions: 1 2 3 4 5 6 7 8 9 10 11 12 13 14 15 16 17 18 19 20 21 22 23
000
FTUS41 KOKX 301100
TAFSWF
TAF
KSWF 301124Z 3012/0118 00000KT 5SM BR BKN010
     FM301300 12004KT P6SM BKN015
     FM301700 12006KT P6SM BKN035
     FM301900 11007KT P6SM BKN035
     FM010300 07003KT P6SM SCT045
     FM010800 08006KT 3SM BR BKN008
     FM011400 06008KT 6SM BR OVC012
      AMD NOT SKED=

USA.gov is the U.S. government's official web portal to all federal, state and local government web resources and services.